Flight Track Log - Related Links

Times and Time Zones

All times are in EDT time to prevent confusion due to time zone crossing. See the KFS724 flight status page for this flight to view local times or setup timezone preferences in your user account.

Time Position Orientation Groundspeed Altitude Reporting Facility
EDT Latitude Longitude Course Direction KTS MPH feet Rate Location/Type
Wed 08:30:46 AM 32.0989 -110.9233 133° Southeast 150 173 3,200  Level Albuquerque Center
Wed 08:31:46 AM 32.0678 -110.8842 133° Southeast 179 206 4,100 1,041 Climbing Albuquerque Center
Wed 08:32:47 AM 32.0250 -110.8303 133° Southeast 238 274 5,300 1,487 Climbing Albuquerque Center
Wed 08:33:43 AM 32.0081 -110.7611 106° East 259 298 7,000 1,862 Climbing Albuquerque Center
Wed 08:34:43 AM 31.9814 -110.6814 112° Southeast 261 300 8,900 1,736 Climbing Albuquerque Center
Wed 08:35:44 AM 32.0169 -110.5803 67° East 308 354 10,500 1,140 Climbing Albuquerque Center
Wed 08:36:44 AM 32.0819 -110.4919 49° Northeast 335 386 11,200 942 Climbing Albuquerque Center
Wed 08:37:45 AM 32.1406 -110.4053 51° Northeast 390 449 12,400 1,736 Climbing Albuquerque Center
Wed 08:38:45 AM 32.2183 -110.2839 53° Northeast 402 463 14,700 1,785 Climbing Albuquerque Center
Wed 08:39:46 AM 32.2875 -110.1775 52° Northeast 408 470 16,000 1,180 Climbing Albuquerque Center
Wed 08:40:47 AM 32.3592 -110.0633 53° Northeast 425 489 17,100 1,240 Climbing Albuquerque Center
Wed 08:41:47 AM 32.4336 -109.9464 53° Northeast 442 509 18,500 1,190 Climbing Albuquerque Center
Wed 08:42:48 AM 32.5083 -109.8264 54° Northeast 451 519 19,500 1,131 Climbing Albuquerque Center
Wed 08:43:49 AM 32.5867 -109.7042 53° Northeast 463 533 20,800 1,289 Climbing Albuquerque Center
Wed 08:44:49 AM 32.6633 -109.5775 54° Northeast 471 542 22,100 1,240 Climbing Albuquerque Center
Wed 08:45:50 AM 32.7417 -109.4539 53° Northeast 472 543 23,300 1,091 Climbing Albuquerque Center
Wed 08:46:50 AM 32.8208 -109.3283 53° Northeast 476 548 24,300 942 Climbing Albuquerque Center
Wed 08:47:51 AM 32.9175 -109.1744 53° Northeast 483 556 25,200 738 Climbing Albuquerque Center
Wed 08:48:52 AM 32.9861 -109.0611 54° Northeast 489 563 25,800 645 Climbing Albuquerque Center
Wed 08:49:52 AM 33.0706 -108.9261 53° Northeast 502 578 26,500 744 Climbing Albuquerque Center
Wed 08:50:53 AM 33.1542 -108.7914 53° Northeast 505 581 27,300 694 Climbing Albuquerque Center
Wed 08:51:53 AM 33.2400 -108.6536 53° Northeast 510 587 27,900 843 Climbing Albuquerque Center
Wed 08:52:54 AM 33.3408 -108.4889 54° Northeast 513 590 29,000 885 Climbing Albuquerque Center
Wed 08:53:55 AM 33.4233 -108.3517 54° Northeast 514 592 29,700 645 Climbing Albuquerque Center
Wed 08:54:55 AM 33.5075 -108.2131 54° Northeast 516 594 30,300 645 Climbing Albuquerque Center
Wed 08:55:56 AM 33.5947 -108.0694 54° Northeast 517 595 31,000 595 Climbing Albuquerque Center
Wed 08:56:56 AM 33.6781 -107.9306 54° Northeast 514 592 31,500 595 Climbing Albuquerque Center
Wed 08:57:57 AM 33.7625 -107.7900 54° Northeast 515 593 32,200 590 Climbing Albuquerque Center
Wed 08:58:58 AM 33.8458 -107.6531 54° Northeast 511 588 32,700 347 Climbing Albuquerque Center
Wed 08:59:58 AM 33.9286 -107.5131 55° Northeast 509 586 32,900 149 Climbing Albuquerque Center
Wed 09:00:59 AM 34.0106 -107.3767 54° Northeast 507 583 33,000 49 Climbing Albuquerque Center
Wed 09:02:00 AM 34.0950 -107.2369 54° Northeast 509 586 33,000  Level Albuquerque Center
Wed 09:03:00 AM 34.1789 -107.0958 54° Northeast 512 589 33,000  Level Albuquerque Center
Wed 09:04:01 AM 34.2619 -106.9536 55° Northeast 514 592 33,000  Level Albuquerque Center
Wed 09:05:02 AM 34.3425 -106.8067 56° Northeast 521 600 33,000  Level Albuquerque Center
Wed 09:06:02 AM 34.3889 -106.6381 72° East 534 615 33,000  Level Albuquerque Center
Wed 09:07:03 AM 34.4347 -106.4717 71° East 529 609 33,000  Level Albuquerque Center
Wed 09:08:04 AM 34.5161 -106.3281 55° Northeast 524 603 33,000  Level Albuquerque Center
Wed 09:09:05 AM 34.6022 -106.1531 59° Northeast 521 600 33,000  Level Albuquerque Center
Wed 09:10:05 AM 34.6786 -106.0008 59° Northeast 520 598 33,000  Level Albuquerque Center
Wed 09:11:06 AM 34.7525 -105.8481 59° Northeast 520 598 33,000  Level Albuquerque Center
Wed 09:12:07 AM 34.8244 -105.6933 60° Northeast 521 600 33,000  Level Albuquerque Center
Wed 09:13:08 AM 34.8986 -105.5389 60° Northeast 523 602 33,000  Level Albuquerque Center
Wed 09:14:08 AM 34.9744 -105.3847 59° Northeast 525 604 33,000  Level Albuquerque Center
Wed 09:15:09 AM 35.0472 -105.2306 60° Northeast 521 600 33,000  Level Albuquerque Center
Wed 09:16:10 AM 35.1211 -105.0758 60° Northeast 522 601 33,000  Level Albuquerque Center
Wed 09:17:11 AM 35.1947 -104.9197 60° Northeast 524 603 33,000  Level Albuquerque Center
Wed 09:18:12 AM 35.2675 -104.7650 60° Northeast 520 598 33,000  Level Albuquerque Center
Wed 09:19:13 AM 35.3408 -104.6078 60° Northeast 522 601 33,000  Level Albuquerque Center
Wed 09:20:14 AM 35.4147 -104.4503 60° Northeast 523 602 33,000  Level Albuquerque Center
Wed 09:21:15 AM 35.4881 -104.2903 61° Northeast 524 603 33,000  Level Albuquerque Center
Wed 09:22:15 AM 35.5625 -104.1311 60° Northeast 526 605 33,000  Level Albuquerque Center
Wed 09:23:16 AM 35.6353 -103.9717 61° Northeast 526 605 33,000  Level Albuquerque Center
Wed 09:24:17 AM 35.7072 -103.8122 61° Northeast 527 606 33,000  Level Albuquerque Center
Wed 09:25:18 AM 35.7794 -103.6533 61° Northeast 526 605 33,000  Level Albuquerque Center
Wed 09:26:19 AM 35.8525 -103.4928 61° Northeast 529 609 33,000  Level Albuquerque Center
Wed 09:27:20 AM 35.9242 -103.3319 61° Northeast 530 610 33,000  Level Albuquerque Center
Wed 09:28:21 AM 35.9967 -103.1703 61° Northeast 532 612 33,000  Level Albuquerque Center
Wed 09:29:22 AM 36.0694 -103.0072 61° Northeast 535 616 33,000  Level Albuquerque Center
Wed 09:30:23 AM 36.1344 -102.8622 61° Northeast 536 617 33,000  Level Albuquerque Center
Wed 09:31:24 AM 36.2064 -102.6978 61° Northeast 540 621 33,000  Level Albuquerque Center
Wed 09:32:25 AM 36.2786 -102.5339 61° Northeast 541 623 33,000  Level Albuquerque Center
Wed 09:33:26 AM 36.3508 -102.3700 61° Northeast 541 623 33,000  Level Albuquerque Center
Wed 09:34:28 AM 36.4239 -102.2025 62° Northeast 546 628 33,000  Level Albuquerque Center
Wed 09:35:29 AM 36.5097 -102.0025 62° Northeast 547 629 33,000  Level Albuquerque Center
Wed 09:36:30 AM 36.5817 -101.8344 62° Northeast 548 631 33,000  Level Albuquerque Center
Wed 09:37:31 AM 36.6489 -101.6775 62° Northeast 549 632 33,000  Level Albuquerque Center
Wed 09:38:32 AM 36.7286 -101.4889 62° Northeast 552 635 33,000  Level Albuquerque Center
Wed 09:39:29 AM 36.7856 -101.3533 62° Northeast 552 635 33,000  Level Kansas City Center
Wed 09:40:30 AM 36.8656 -101.1658 62° Northeast 550 633 33,000  Level Kansas City Center
Wed 09:41:31 AM 36.9328 -101.0044 62° Northeast 550 633 33,000  Level Kansas City Center
Wed 09:42:33 AM 37.0122 -100.8153 62° Northeast 552 635 33,000  Level Kansas City Center
Wed 09:43:37 AM 37.0794 -100.6544 62° Northeast 549 632 33,000  Level Kansas City Center
Wed 09:44:39 AM 37.1581 -100.4653 62° Northeast 551 634 33,000  Level Kansas City Center
Wed 09:45:40 AM 37.2244 -100.3036 63° Northeast 550 633 33,000  Level Kansas City Center
Wed 09:46:41 AM 37.3014 -100.1133 63° Northeast 550 633 33,000  Level Kansas City Center
Wed 09:47:43 AM 37.3672 -99.9506 63° Northeast 550 633 33,000  Level Kansas City Center
Wed 09:48:47 AM 37.4453 -99.7578 63° Northeast 553 636 33,000  Level Kansas City Center
Wed 09:49:48 AM 37.5108 -99.5944 63° Northeast 550 633 33,000  Level Kansas City Center
Wed 09:50:49 AM 37.5733 -99.4353 64° Northeast 551 634 33,000  Level Kansas City Center
Wed 09:51:50 AM 37.6606 -99.2269 62° Northeast 558 642 33,000  Level Kansas City Center
Wed 09:52:54 AM 37.7275 -99.0547 64° Northeast 550 633 33,000  Level Kansas City Center
Wed 09:53:57 AM 37.7939 -98.8811 64° Northeast 548 631 33,000  Level Kansas City Center
Wed 09:54:58 AM 37.8578 -98.7075 65° Northeast 545 627 33,000  Level Kansas City Center
Wed 09:55:59 AM 37.9275 -98.5347 63° Northeast 548 631 33,000  Level Kansas City Center
Wed 09:57:01 AM 37.9956 -98.3586 64° Northeast 554 638 33,000  Level Kansas City Center
Wed 09:58:04 AM 38.0628 -98.1831 64° Northeast 548 631 33,000  Level Kansas City Center
Wed 09:59:05 AM 38.1383 -97.9764 65° Northeast 548 631 33,000  Level Kansas City Center
Wed 10:00:09 AM 38.2122 -97.7908 63° Northeast 552 635 33,000  Level Kansas City Center
Wed 10:01:10 AM 38.2783 -97.6133 65° Northeast 550 633 33,000  Level Kansas City Center
Wed 10:02:11 AM 38.3450 -97.4381 64° Northeast 548 631 33,000  Level Kansas City Center
Wed 10:03:15 AM 38.4103 -97.2622 65° Northeast 548 631 33,000  Level Kansas City Center
Wed 10:04:15 AM 38.4758 -97.0853 65° Northeast 549 632 33,000  Level Kansas City Center
Wed 10:05:19 AM 38.5397 -96.9106 65° Northeast 544 626 33,000  Level Kansas City Center
Wed 10:06:21 AM 38.6119 -96.7136 65° Northeast 544 626 33,000  Level Kansas City Center
Wed 10:07:23 AM 38.6725 -96.5461 65° Northeast 543 625 33,000  Level Kansas City Center
Wed 10:08:24 AM 38.7425 -96.3503 65° Northeast 543 625 33,000  Level Kansas City Center
Wed 10:09:26 AM 38.8033 -96.1833 65° Northeast 542 624 33,000  Level Kansas City Center
Wed 10:10:27 AM 38.8728 -95.9872 65° Northeast 540 621 33,000  Level Kansas City Center
Wed 10:11:30 AM 38.9322 -95.8189 66° East 542 624 33,000  Level Kansas City Center
Wed 10:12:33 AM 39.0014 -95.6206 66° East 543 625 33,000  Level Kansas City Center
Wed 10:13:33 AM 39.0694 -95.4311 65° Northeast 541 623 33,000  Level Kansas City Center
Wed 10:14:37 AM 39.1317 -95.2572 65° Northeast 536 617 33,000  Level Kansas City Center
Wed 10:15:38 AM 39.1831 -95.0978 67° East 534 615 33,000  Level Kansas City Center
Wed 10:16:40 AM 39.2508 -94.9017 66° East 536 617 33,000  Level Kansas City Center
Wed 10:17:40 AM 39.3078 -94.7358 66° East 531 611 33,000  Level Kansas City Center
Wed 10:18:43 AM 39.3758 -94.5361 66° East 541 623 33,000  Level Kansas City Center
Wed 10:19:44 AM 39.4344 -94.3647 66° East 544 626 33,000  Level Kansas City Center
Wed 10:20:48 AM 39.5008 -94.1647 67° East 542 624 33,000  Level Kansas City Center
Wed 10:21:50 AM 39.5572 -93.9933 67° East 541 623 33,000  Level Kansas City Center
Wed 10:22:52 AM 39.6239 -93.7931 67° East 541 623 33,000  Level Kansas City Center
Wed 10:23:53 AM 39.6786 -93.6308 66° East 541 623 33,000  Level Kansas City Center
Wed 10:25:38 AM 39.7811 -93.3078 67° East 539 620 33,000  Level Chicago Center
Wed 10:25:56 AM 39.8061 -93.2417 64° Northeast 531 611 33,000  Level Kansas City Center
Wed 10:26:59 AM 39.8631 -93.0636 67° East 536 617 33,000  Level Kansas City Center
Wed 10:28:00 AM 39.9186 -92.8856 68° East 537 618 33,000  Level Kansas City Center
Wed 10:29:03 AM 39.9756 -92.7081 67° East 540 621 33,000  Level Kansas City Center
Wed 10:30:04 AM 40.0411 -92.4936 68° East 542 624 33,000  Level Kansas City Center
Wed 10:31:05 AM 40.0972 -92.3203 67° East 534 615 33,000  Level Kansas City Center
Wed 10:32:08 AM 40.1519 -92.1425 68° East 538 619 33,000  Level Kansas City Center
Wed 10:33:09 AM 40.2058 -91.9653 68° East 533 613 33,000  Level Kansas City Center
Wed 10:34:13 AM 40.2617 -91.7878 68° East 533 613 33,000  Level Kansas City Center
Wed 10:35:13 AM 40.3261 -91.5731 68° East 532 612 33,000  Level Kansas City Center
Wed 10:36:14 AM 40.3800 -91.3967 68° East 529 609 33,000  Level Kansas City Center
Wed 10:37:01 AM 40.4236 -91.2514 68° East 530 610 33,000  Level Chicago Center
Wed 10:38:03 AM 40.4778 -91.0711 68° East 532 612 33,000  Level Chicago Center
Wed 10:39:05 AM 40.5308 -90.8908 69° East 530 610 33,000  Level Chicago Center
Wed 10:40:07 AM 40.5858 -90.7081 68° East 535 616 33,000  Level Chicago Center
Wed 10:41:09 AM 40.6383 -90.5261 69° East 532 612 33,000  Level Chicago Center
Wed 10:42:11 AM 40.6917 -90.3417 69° East 537 618 33,000  Level Chicago Center
Wed 10:43:13 AM 40.7589 -90.1136 69° East 538 619 33,000  Level Chicago Center
Wed 10:44:15 AM 40.8097 -89.9294 70° East 538 619 33,000  Level Chicago Center
Wed 10:45:17 AM 40.8625 -89.7433 69° East 540 621 33,000  Level Chicago Center
Wed 10:46:19 AM 40.9161 -89.5589 69° East 540 621 33,000  Level Chicago Center
Wed 10:47:21 AM 40.9711 -89.3631 70° East 540 621 33,000  Level Chicago Center
Wed 10:48:23 AM 41.0194 -89.1872 70° East 541 623 33,000  Level Chicago Center
Wed 10:49:25 AM 41.0806 -88.9644 70° East 540 621 33,000  Level Chicago Center
Wed 10:50:26 AM 41.1319 -88.7783 70° East 541 623 33,000  Level Chicago Center
Wed 10:51:28 AM 41.1825 -88.5919 70° East 539 620 33,000  Level Chicago Center
Wed 10:52:30 AM 41.2322 -88.4058 70° East 539 620 33,000  Level Chicago Center
Wed 10:53:32 AM 41.2822 -88.2217 70° East 536 617 33,000  Level Chicago Center
Wed 10:54:34 AM 41.3406 -88.0064 70° East 541 623 33,000 -290 Level Chicago Center
Wed 10:55:36 AM 41.3878 -87.8211 71° East 550 633 32,400 -683 Descending Chicago Center
Wed 10:56:37 AM 41.4386 -87.6289 71° East 557 641 31,600 -634 Descending Chicago Center
Wed 10:57:39 AM 41.4886 -87.4336 71° East 560 644 31,100 -290 Descending Chicago Center
Wed 10:58:41 AM 41.5478 -87.2022 71° East 551 634 31,000 -48 Descending Chicago Center
Wed 10:59:43 AM 41.5975 -87.0106 71° East 550 633 31,000  Level Chicago Center
Wed 11:00:46 AM 41.6458 -86.8175 71° East 551 634 31,000  Level Chicago Center
Wed 11:01:48 AM 41.6914 -86.6336 72° East 558 642 31,000  Level Chicago Center
Wed 11:02:50 AM 41.7500 -86.3956 72° East 564 649 31,000 -439 Level Chicago Center
Wed 11:03:51 AM 41.7933 -86.1933 74° East 564 649 30,100 -976 Descending Chicago Center
Wed 11:04:53 AM 41.8342 -85.9886 75° East 567 652 29,000 -1,645 Descending Chicago Center
Wed 11:05:55 AM 41.8744 -85.7831 75° East 567 652 26,700 -2,634 Descending Chicago Center
Wed 11:06:56 AM 41.9117 -85.5847 76° East 549 632 23,600 -2,878 Descending Chicago Center
Wed 11:07:58 AM 41.9486 -85.3886 76° East 540 621 20,800 -2,579 Descending Chicago Center
Wed 11:08:50 AM 41.9803 -85.2347 74° East 532 612 18,700 -2,036 Descending Cleveland Center
Wed 11:09:50 AM 42.0122 -85.0636 76° East 498 573 17,000 -850 Descending Cleveland Center
Wed 11:10:50 AM 42.0394 -84.8978 77° East 475 547 17,000 -1,000 Level Cleveland Center
Wed 11:11:50 AM 42.0636 -84.7456 78° East 438 504 15,000 -2,300 Descending Cleveland Center
Wed 11:12:50 AM 42.0397 -84.5983 102° East 402 463 12,400 -1,950 Descending Cleveland Center
Wed 11:13:50 AM 42.0197 -84.4575 101° East 392 451 11,100 -1,260 Descending Cleveland Center
Wed 11:14:30 AM 42.0042 -84.3558 102° East 365 420 10,300 -1,000 Descending Cleveland Center
Wed 11:14:50 AM 42.0031 -84.3250 93° East 377 434 10,100 -500 Descending Cleveland Center
Wed 11:15:06 AM 41.9922 -84.2797 108° East 324 373 10,000 -100 Descending Cleveland Center
Wed 11:15:50 AM 41.9800 -84.2006 102° East 333 383 10,000 -288 Level Cleveland Center
Wed 11:16:50 AM 42.0119 -84.1131 64° Northeast 256 295 9,500 -1,050 Descending Cleveland Center
Wed 11:17:50 AM 42.0867 -84.0556 30° Northeast 260 299 7,900 -1,450 Descending Cleveland Center
Wed 11:18:50 AM 42.1492 -83.9917 37° Northeast 267 307 6,600 -1,500 Descending Cleveland Center
Wed 11:19:50 AM 42.1436 -83.8964 94° East 237 273 4,900 -1,511 Descending Cleveland Center
Wed 11:21:05 AM 42.1278 -83.7861 101° East 234 269 3,200 -882 Descending Cleveland Center
Wed 11:22:06 AM 42.1278 -83.7189 90° East 182 209 2,900 -295 Descending Cleveland Center
Wed 11:23:07 AM 42.1500 -83.6611 63° Northeast 165 190 2,600 -246 Descending Cleveland Center
Wed 11:24:08 AM 42.1719 -83.6203 54° Northeast 128 147 2,400 -492 Descending Cleveland Center
Wed 11:25:09 AM 42.2022 -83.5825 43° Northeast 138 159 1,600 -787 Descending Cleveland Center
Wed 11:27:00 AM 42.2333 -83.5167 56° Northeast  Level FlightAware Approximate

Login

Don't have an account? Register now (free) for customized features, flight alerts, and more!